EW6527 Weather Reports


time (UTC)temp
C
wind
direction
speed
KPH
gust
KPH
rain 1hr
cm
rain 24hr
cm
rain mn
cm
humidity
%
barometer
mb
20260508013048 14 0 0.0 0.0 0.00 0.00 0.00 83 1025.1
20260508012526 14 0 0.0 0.0 0.00 0.00 0.00 83 1024.8
20260508011518 14 0 0.0 0.0 0.00 0.00 0.00 84 1024.9
20260508010046 14 0 0.0 0.0 0.00 0.00 0.00 84 1024.9
20260508005045 14 0 0.0 0.0 0.00 0.00 0.00 84 1024.9
20260508004045 14 0 0.0 0.0 0.00 0.00 0.00 84 1024.9
20260508003046 14 0 0.0 0.0 0.00 0.00 0.00 84 1025.1
20260508002524 14 0 0.0 0.0 0.00 0.00 0.00 84 1025.2
20260508001043 14 0 0.0 0.0 0.00 0.00 0.00 84 1025.2
20260508000044 14 0 0.0 0.0 0.00 0.00 0.00 85 1025.3
20260507235043 14 0 0.0 0.0 0.00 0.00 0.00 85 1025.4
20260507234044 14 0 0.0 0.0 0.00 0.00 0.00 85 1025.4
20260507233042 13 0 0.0 0.0 0.00 0.00 0.00 85 1025.2
20260507232524 13 0 0.0 0.0 0.00 0.00 0.00 85 1025.2
20260507231518 14 0 0.0 0.0 0.00 0.00 0.00 86 1025.2
20260507230042 14 0 0.0 0.0 0.00 0.00 0.00 86 1025.2
20260507225041 14 0 0.0 0.0 0.00 0.00 0.00 86 1025.4
20260507224041 13 0 0.0 0.0 0.00 0.00 0.00 86 1025.1
20260507223041 13 0 0.0 0.0 0.00 0.00 0.00 85 1025.1
20260507222041 13 0 0.0 0.0 0.00 0.00 0.00 86 1025.3
20260507221039 13 0 0.0 0.0 0.00 0.00 0.00 85 1025.3
20260507220039 13 0 0.0 0.0 0.00 0.00 0.00 85 1025.1
20260507215037 13 0 0.0 0.0 0.00 0.00 0.00 85 1025.4
20260507214037 13 0 0.0 0.0 0.00 0.00 0.00 85 1025.2
20260507213037 13 0 0.0 0.0 0.00 0.00 0.00 84 1024.9
20260507212037 13 0 0.0 0.0 0.00 0.00 0.00 84 1024.7
20260507212007 14 0 0.0 0.0 0.00 0.00 0.00 85 1024.6
20260507210035 13 0 0.0 0.0 0.00 0.00 0.00 85 1024.6
20260507205034 14 0 0.0 0.0 0.00 0.00 0.00 85 1024.6
20260507204035 14 0 0.0 0.0 0.00 0.00 0.00 85 1024.7
20260507203035 14 0 0.0 0.0 0.00 0.00 0.00 84 1024.7
20260507202034 14 0 0.0 0.0 0.00 0.00 0.00 84 1024.6
20260507201034 15 0 0.0 0.0 0.00 0.00 0.00 83 1024.5
20260507200034 15 0 0.0 0.0 0.00 0.00 0.00 81 1024.5
20260507195033 16 0 0.0 0.0 0.00 0.00 0.00 79 1024.4
20260507194033 16 0 0.0 0.0 0.00 0.00 0.00 80 1024.2
20260507193032 16 0 0.0 0.0 0.00 0.00 0.00 80 1024.0
20260507192033 17 0 0.0 0.0 0.00 0.00 0.00 79 1023.5
20260507191030 17 0 0.0 0.0 0.00 0.00 0.00 78 1023.4
20260507190030 17 0 0.0 0.0 0.00 0.00 0.00 77 1023.4
20260507185029 17 0 0.0 0.0 0.00 0.00 0.00 78 1023.0
20260507184029 17 0 0.0 0.0 0.00 0.00 0.00 78 1023.1
20260507183027 17 0 0.0 0.0 0.00 0.00 0.00 77 1023.0
20260507182026 17 0 0.0 0.0 0.00 0.00 0.00 76 1022.9
20260507181025 17 0 0.0 0.0 0.00 0.00 0.00 76 1022.9
20260507180025 17 0 0.0 0.0 0.00 0.00 0.00 75 1022.8
20260507175025 17 0 0.0 0.0 0.00 0.00 0.00 74 1022.6
20260507174025 17 0 0.0 0.0 0.00 0.00 0.00 74 1022.5
20260507173025 17 0 0.0 0.0 0.00 0.00 0.00 75 1022.3
20260507172025 17 0 0.0 0.0 0.00 0.00 0.00 75 1022.2
20260507171024 17 0 0.0 0.0 0.00 0.00 0.00 77 1022.1
20260507170024 17 0 0.0 0.0 0.00 0.00 0.00 77 1022.0
20260507165931 17 0 0.0 0.0 0.00 0.00 0.00 77 1021.9
20260507164024 17 0 0.0 0.0 0.00 0.00 0.00 78 1021.9
20260507163024 17 0 0.0 0.0 0.00 0.00 0.00 78 1022.1
20260507162025 17 0 0.0 0.0 0.00 0.00 0.00 77 1022.2
20260507161025 17 0 0.0 0.0 0.00 0.00 0.00 78 1022.2
20260507160506 17 0 0.0 0.0 0.00 0.00 0.00 78 1022.3
20260507155022 17 0 0.0 0.0 0.00 0.00 0.00 77 1022.4
20260507154023 17 0 0.0 0.0 0.00 0.00 0.00 77 1022.4
20260507153023 18 0 0.0 0.0 0.00 0.00 0.00 75 1022.4
20260507152937 18 0 0.0 0.0 0.00 0.00 0.00 73 1022.4
20260507151022 19 0 0.0 0.0 0.00 0.00 0.00 70 1022.4
20260507150020 20 0 0.0 0.0 0.00 0.00 0.00 66 1022.2
20260507145020 20 0 0.0 0.0 0.00 0.00 0.00 62 1022.2
20260507144020 20 0 0.0 0.0 0.00 0.00 0.00 58 1022.1
20260507143020 20 0 0.0 0.0 0.00 0.00 0.00 56 1021.9
20260507142020 21 0 0.0 0.0 0.00 0.00 0.00 54 1021.9
20260507141020 21 0 0.0 0.0 0.00 0.00 0.00 50 1021.9
20260507140456 21 0 0.0 0.0 0.00 0.00 0.00 48 1021.9
20260507135019 21 0 0.0 0.0 0.00 0.00 0.00 47 1021.8
20260507134018 21 0 0.0 0.0 0.00 0.00 0.00 51 1021.5
20260507133018 21 0 0.0 0.0 0.00 0.00 0.00 55 1021.4
20260507132018 21 0 0.0 0.0 0.00 0.00 0.00 56 1021.5
20260507131454 21 0 0.0 0.0 0.00 0.00 0.00 57 1021.5
20260507130520 21 0 0.0 0.0 0.00 0.00 0.00 56 1021.6
20260507125018 21 0 0.0 0.0 0.00 0.00 0.00 56 1021.8
20260507124500 21 0 0.0 0.0 0.00 0.00 0.00 52 1021.8
20260507123016 21 0 0.0 0.0 0.00 0.00 0.00 54 1021.6
20260507122014 22 0 0.0 0.0 0.00 0.00 0.00 54 1021.6
20260507121012 22 0 0.0 0.0 0.00 0.00 0.00 55 1021.5
20260507120012 22 0 0.0 0.0 0.00 0.00 0.00 55 1021.5
20260507115008 22 0 0.0 0.0 0.00 0.00 0.00 54 1021.4
20260507114447 22 0 0.0 0.0 0.00 0.00 0.00 55 1021.3
20260507113008 22 0 0.0 0.0 0.00 0.00 0.00 54 1021.4
20260507112006 21 0 0.0 0.0 0.00 0.00 0.00 55 1021.3
20260507111005 22 0 0.0 0.0 0.00 0.00 0.00 55 1021.4
20260507110008 22 0 0.0 0.0 0.00 0.00 0.00 56 1021.3
20260507105007 22 0 0.0 0.0 0.00 0.00 0.00 56 1021.2
20260507104006 22 0 0.0 0.0 0.00 0.00 0.00 57 1021.2
20260507103003 21 0 0.0 0.0 0.00 0.00 0.00 57 1021.3
20260507102012 21 0 0.0 0.0 0.00 0.00 0.00 57 1021.3
20260507101007 21 0 0.0 0.0 0.00 0.00 0.00 58 1021.2
20260507100001 21 0 0.0 0.0 0.00 0.00 0.00 57 1021.2
20260507095002 21 0 0.0 0.0 0.00 0.00 0.00 58 1021.1
20260507094455 21 0 0.0 0.0 0.00 0.00 0.00 57 1021.2
20260507093000 21 0 0.0 0.0 0.00 0.00 0.00 57 1021.0
20260507091959 21 0 0.0 0.0 0.00 0.00 0.00 56 1021.0
20260507090959 21 0 0.0 0.0 0.00 0.00 0.00 57 1020.8
20260507085959 21 0 0.0 0.0 0.00 0.00 0.00 57 1020.6
20260507085000 21 0 0.0 0.0 0.00 0.00 0.00 56 1020.4
20260507083959 21 0 0.0 0.0 0.00 0.00 0.00 57 1020.3
20260507082959 21 0 0.0 0.0 0.00 0.00 0.00 57 1020.0
20260507081958 21 0 0.0 0.0 0.00 0.00 0.00 57 1020.0
20260507080957 20 0 0.0 0.0 0.00 0.00 0.00 55 1019.9
20260507075957 20 0 0.0 0.0 0.00 0.00 0.00 56 1019.8
20260507074957 20 0 0.0 0.0 0.00 0.00 0.00 58 1019.8
20260507073957 20 0 0.0 0.0 0.00 0.00 0.00 57 1019.7
20260507072957 20 0 0.0 0.0 0.00 0.00 0.00 58 1019.8
20260507071955 20 0 0.0 0.0 0.00 0.00 0.00 59 1019.6
20260507070954 20 0 0.0 0.0 0.00 0.00 0.00 59 1019.5
20260507065951 20 0 0.0 0.0 0.00 0.00 0.00 60 1019.4
20260507064951 20 0 0.0 0.0 0.00 0.00 0.00 59 1019.5
20260507064437 19 0 0.0 0.0 0.00 0.00 0.00 60 1019.4
20260507062951 19 0 0.0 0.0 0.00 0.00 0.00 60 1019.3
20260507062433 19 0 0.0 0.0 0.00 0.00 0.00 60 1019.3
20260507060951 19 0 0.0 0.0 0.00 0.00 0.00 61 1019.2
20260507055951 18 0 0.0 0.0 0.00 0.00 0.00 61 1019.1
20260507054945 18 0 0.0 0.0 0.00 0.00 0.00 62 1019.0
20260507053945 18 0 0.0 0.0 0.00 0.00 0.00 62 1018.8
20260507052944 18 0 0.0 0.0 0.00 0.00 0.00 63 1018.8
20260507051945 18 0 0.0 0.0 0.00 0.00 0.00 65 1018.8
20260507050945 18 0 0.0 0.0 0.00 0.00 0.00 65 1018.6
20260507045944 18 0 0.0 0.0 0.00 0.00 0.00 66 1018.4
20260507045417 18 0 0.0 0.0 0.00 0.00 0.00 62 1018.3
20260507043936 18 0 0.0 0.0 0.00 0.00 0.00 64 1018.3
20260507042934 18 0 0.0 0.0 0.00 0.00 0.00 64 1018.3
20260507041934 18 0 0.0 0.0 0.00 0.00 0.00 65 1018.3
20260507040934 18 0 0.0 0.0 0.00 0.00 0.00 63 1018.0
20260507035935 18 0 0.0 0.0 0.00 0.00 0.00 62 1017.9
20260507034935 18 0 0.0 0.0 0.00 0.00 0.00 61 1018.0
20260507033934 18 0 0.0 0.0 0.00 0.00 0.00 61 1018.1
20260507032935 18 0 0.0 0.0 0.00 0.00 0.00 60 1017.9
20260507031933 18 0 0.0 0.0 0.00 0.00 0.00 59 1017.9
20260507030934 18 0 0.0 0.0 0.00 0.00 0.00 58 1017.5
20260507025934 18 0 0.0 0.0 0.00 0.00 0.00 58 1017.7
20260507024934 18 0 0.0 0.0 0.00 0.00 0.00 58 1017.7
20260507024412 18 0 0.0 0.0 0.00 0.00 0.00 58 1017.7
20260507022934 18 0 0.0 0.0 0.00 0.00 0.00 61 1017.6
20260507021934 18 0 0.0 0.0 0.00 0.00 0.00 62 1017.6
20260507020934 18 0 0.0 0.0 0.00 0.00 0.00 63 1017.5
20260507020418 18 0 0.0 0.0 0.00 0.00 0.00 63 1017.4
20260507014934 18 0 0.0 0.0 0.00 0.00 0.00 62 1017.2
20260507013934 18 0 0.0 0.0 0.00 0.00 0.00 60 1017.3